Content
SEND FEEDBACK

Daily
Averages
Monthly
Summary
United States of America

PUT IN BAY, OHIO


Home > North America > United States > Ohio
Elevation: 171 meters     Latitude: 41 39N     Longitude: 082 48W

WEATHER
 
SELECT A DAY
Number of Records: 124,968;   Date Range: 12/10/00 - 10/30/14
 
SHARE

PRINT THIS DATA

[ ← Previous Day ]
WEATHER ALMANAC - 7 MAY, 2013
[ Next Day → ]
[ °F ]   °C
Weather ElementAverageHighLow
Temperature16.6 °C22.1 °C (5:00 pm)10.1 °C (6:00 am)
Dewpoint9.4 °C12.2 °C (11:00 am)3.1 °C (1:00 am)
Humidity62.8 %86 % (6:00 am)42 % (2:00 pm)
Barometer1016.3 hPa1017.6 hPa (9:00 am)1015.2 hPa (5:00 pm)
Wind Speed6.3 km/h13 km/h (4:00 pm)
Weather ElementAverage
Wind DirectionE (87.4 °)

Weather ElementTotal
Precipitation---
Heating Degree Days2.2 (Base 18.3)
Growing Degree Days6.1 (Base 10)
Averaged from 27 records on 7 May, 2013
WEATHER CONDITIONS BREAKOUT
WIND DIRECTION BREAKOUT
WEATHER BY HOUR - 7 MAY, 2013
[ °F ]   °C
Local TimeTemperatureDewpointHumidityBarometerVisibilityWind DirectionWind SpeedGust SpeedPrecipitationEventsConditions
1:00 AM13.8 °C3.1 °C49 %1015.9 hPaESE (110°)3.7 km/h
2:00 AM12.8 °C6.7 °C57 %1015.9 hPaSE (130°)7.4 km/h
2:00 AM12.6 °C6.7 °C67 %1015.9 hPaSE (130°)7.4 km/h
3:00 AM11.4 °C7.3 °C76 %1015.6 hPaCalm
4:00 AM10.7 °C7.6 °C81 %1015.6 hPaENE (60°)3.7 km/h
5:00 AM10.8 °C8 °C83 %1015.9 hPaEast (80°)3.7 km/h
6:00 AM10.1 °C7.8 °C86 %1016.3 hPaESE (110°)1.9 km/h
7:00 AM11.2 °C8.9 °C86 %1016.6 hPaEast (90°)1.9 km/h
8:00 AM13.9 °C10.6 °C74 %1017.3 hPaNE (40°)3.7 km/h
8:00 AM13.8 °C10.5 °C80 %1017.3 hPaNE (40°)3.7 km/h
9:00 AM15.8 °C11.1 °C74 %1017.6 hPaENE (60°)7.4 km/h
10:00 AM17.6 °C11.5 °C67 %1017.3 hPaENE (60°)9.3 km/h
11:00 AM19.4 °C12.2 °C63 %1017.3 hPaESE (120°)7.4 km/h
12:00 PM19.8 °C11.4 °C58 %1016.9 hPaESE (120°)9.3 km/h
1:00 PM20.8 °C11.7 °C56 %1016.6 hPaESE (110°)7.4 km/h
2:00 PM21.7 °C11.7 °C42 %1016.3 hPaEast (80°)11.1 km/h
2:00 PM21.8 °C11.5 °C52 %1016.3 hPaEast (80°)11.1 km/h
3:00 PM22 °C11.5 °C51 %1015.9 hPaESE (110°)11.1 km/h
4:00 PM21.4 °C10.7 °C50 %1015.6 hPaSE (140°)13 km/h
5:00 PM22.1 °C10.5 °C48 %1015.2 hPaESE (120°)11.1 km/h
6:00 PM22 °C9 °C43 %1015.2 hPaESE (110°)7.4 km/h
7:00 PM19.5 °C9.6 °C53 %1015.2 hPaSE (140°)11.1 km/h
8:00 PM18.3 °C9.4 °C45 %1015.2 hPaESE (110°)3.7 km/h
8:00 PM18.4 °C9.2 °C55 %1015.2 hPaESE (110°)3.7 km/h
9:00 PM16 °C8.8 °C62 %1015.2 hPaCalm
10:00 PM14.8 °C9.5 °C71 %1015.9 hPaEast (90°)3.7 km/h
11:00 PM15.5 °C9.1 °C66 %1015.9 hPaNorth (10°)5.6 km/h
Hourly data recorded from CXHA, located 0 kilometers away from Put In Bay, Ohio







STORIES FROM OUR PARTNERS